Flag for U.S.A. Weather past 2 weeks in Sacramento, California, U.S.A.

Now
77 °F

Clear.


Feels Like: 78 °F
Forecast: 63 / 90 °F
Wind: 3 mph from Southwest

Location: Sacramento Executive Airport

Current Time: Sep 2, 2014 at 12:14:59 AM

Latest Report: Sep 1, 2014 at 10:53 PM


Visibility: 10 mi

Pressure: 29.72 "Hg

Humidity: 40%

Dew point: 51 °F

Location of SacramentoLocation

Historic Weather in Sacramento — Graph

°F

Sacramento temperature yesterday

Maximum temperature yesterday: 101 °F (at 3:53 PM)
Minimum temperature yesterday: 61 °F (at 6:05 AM)
Average temperature yesterday: 79 °F

Past Weeks' High & Low Weather Summary

 TemperatureHumidityPressure
High101 °F (Sep 1, 3:53 PM)90% (Aug 18, 3:53 AM)30.05 "Hg (Aug 18, 3:53 AM)
Low57 °F (Aug 23, 6:53 AM)14% (Sep 1, 3:53 PM)29.69 "Hg (Sep 1, 6:53 PM)
Average73 °F58%29.85 "Hg
* Reported Aug 17 10:53 PM — Sep 1 10:53 PM, Sacramento, Weather by CustomWeather, © 2014

Note: Actual official high and low records may vary slightly from our data, if they occured in-between our weather recording intervals... More about our weather records

Advertising

Sacramento weather history for previous 24 hours

 ConditionsComfort  
Time TempWeatherWind HumidityBarometerVisibility
10:53 PM
Sep 1
77 °FClear.3 mph40%29.72 "Hg10 mi
9:53 PM79 °FClear.3 mph38%29.72 "Hg10 mi
8:53 PM83 °FClear.6 mph34%29.70 "Hg10 mi
7:53 PM87 °FSunny.8 mph31%29.69 "Hg10 mi
6:53 PM94 °FSunny.6 mph24%29.69 "Hg10 mi
5:53 PM98 °FSunny.9 mph18%29.70 "Hg10 mi
4:53 PM99 °FSunny.No wind15%29.70 "Hg10 mi
3:53 PM101 °FSunny.8 mph14%29.72 "Hg10 mi
2:53 PM98 °FSunny.7 mph17%29.74 "Hg10 mi
1:53 PM94 °FSunny.8 mph22%29.77 "Hg10 mi
12:53 PM91 °FSunny.No wind25%29.78 "Hg10 mi
11:53 AM87 °FSunny.3 mph31%29.80 "Hg10 mi
10:53 AM81 °FSunny.3 mph42%29.82 "Hg10 mi
9:53 AM77 °FSunny.No wind50%29.82 "Hg10 mi
8:53 AM71 °FSunny.No wind59%29.82 "Hg10 mi
7:53 AM67 °FSunny.No wind71%29.81 "Hg10 mi
6:53 AM62 °FClear.No wind80%29.80 "Hg10 mi
6:05 AM61 °FClear.No wind83%29.80 "Hg10 mi
5:53 AM62 °FClear.No wind78%29.79 "Hg10 mi
4:53 AM64 °FClear.No wind73%29.79 "Hg10 mi
3:53 AM66 °FClear.No wind65%29.79 "Hg10 mi
2:53 AM65 °FClear.3 mph66%29.79 "Hg10 mi
1:53 AM68 °FClear.No wind59%29.78 "Hg10 mi
12:53 AM69 °FClear.No wind57%29.79 "Hg10 mi
Weather by CustomWeather, © 2014

See weather overviewHow to use our weather pages